INTELSAT 905 (IS-905)

Last updated on Sun Sep 14 2025 00:02:46 GMT+0000 (Coordinated Universal Time)

1 27438U 02027A 25256.13088727 .00000087 00000+0 00000+0 0 9994 2 27438 6.0518 73.1265 0002397 106.6982 82.4945 1.00273594 48581
UTC large
Height (km)
Speed (km/s)
/
Latitude / Longitude
Inclination (degrees)
Orbital Period (minutes)
Azimuth
Elevation
Range (km)
Doppler Factor

Next 0 passes for location: London (51.5072 / 0.1276)

Sorry there are no passes over London.